User: anonymous   Login
Location: Bangkok
(13.7500°N, 100.5170°E)
Time: 02:23:20
(UTC+07:00)
Language:

Cosmos 1898 Rocket - Orbit

View from above orbital plane
View from above orbital plane
View from above satellite
View from above satellite

Ground track
Ground track

The orbit data is extracted from the following two-line orbital elements,

1 18586U 87098B   18147.11347872  .00000034  00000-0  20568-4 0  9996
2 18586  74.0082  22.0139 0021008 354.7523   5.3406 14.36823105596751
Epoch (UTC): 27 May 2018 02:43:24
Eccentricity: 0.0021008
inclination: 74.0082°
perigee height: 754 km
apogee height: 784 km
right ascension of ascending node: 22.0139°
argument of perigee: 354.7523°
revolutions per day: 14.36823105
mean anomaly at epoch: 5.3406°
orbit number at epoch: 59675

The dashed part of the orbit path shows where the satellite is in the earth's shadow,  

DLR